Regional Weather Roundup
Issued by NWS Charleston, SC

Current Version | Previous Version | Graphics & Text | Print | Product List | Glossary On
Versions: 1 2 3 4 5 6 7 8 9 10 11 12 13 14 15 16 17 18 19 20 21 22 23 24 25 26 27 28 29 30 31 32 33 34 35 36 37 38 39 40 41 42 43 44 45 46 47 48 49 50
000 ASUS42 KCHS 250213 RWRCHS REGIONAL WEATHER ROUNDUP NATIONAL WEATHER SERVICE CHARLESTON SC 1000 PM EDT TUE MAY 24 2016 NOTE: "FAIR" INDICATES FEW OR NO CLOUDS BELOW 12,000 FEET WITH NO SIGNIFICANT WEATHER AND/OR OBSTRUCTIONS TO VISIBILITY. NOT ALL STATIONS ARE QUALITY CONTROLLED. USE DATA WITH CAUTION... ESPECIALLY DEWPOINT OBSERVATIONS. SCZ027-030-031-034>040-042>050-250300- ...SOUTHEAST SOUTH CAROLINA... CITY SKY/WX TMP DP RH WIND PRES REMARKS N CHARLESTON CLEAR 70 61 73 S5 30.17R WATERFRONT PRK N/A 74 65 73 S6 30.15R MOUNT PLEASANT FAIR 68 63 83 CALM 30.17R JOHNS ISLAND FAIR 72 64 78 S6 30.17R PINOPOLIS N/A 73 63 68 CALM 30.08R MONCKS CORNER FAIR 66 57 72 CALM 30.17R SUMMERVILLE FAIR 70 63 78 CALM 30.17R BEAUFORT MCAS PTCLDY 74 66 76 S5 30.16R BEAUFORT ARPT FAIR 72 64 78 S3 30.16R HILTON HEAD IS CLEAR 73 66 78 S8 30.17R WALTERBORO CLEAR 72 63 73 S5 30.17R ALLENDALE FAIR 73 64 73 SE3 30.15R ...SOUTHERN MIDLANDS AND PEE DEE... CITY SKY/WX TMP DP RH WIND PRES REMARKS GEORGETOWN FAIR 63 55 77 CALM 30.19R KINGSTREE FAIR 70 57 64 SE7 30.16R ORANGEBURG PTCLDY 70 63 78 S5 30.15R BARNWELL FAIR 77 66 69 CALM 30.15R AIKEN FAIR 68 54 60 CALM 30.18R MANNING FAIR 72 63 73 S5 30.15R COLUMBIA CLEAR 77 58 51 CALM 30.13R SUMTER PTCLDY 72 60 66 CALM 30.12R FLORENCE CLEAR 67 59 75 CALM 30.15R MYRTLE BEACH CLEAR 72 54 53 SW9 30.19R N MYRTLE BEACH CLEAR 72 58 61 SW12 30.16R $$ GAZ063-065-086>088-099>101-113>116-118-119-134>141-150-250300- ...SOUTHEAST GEORGIA... CITY SKY/WX TMP DP RH WIND PRES REMARKS SAVANNAH ARPT CLOUDY 72 65 78 S6 30.16R HUNTER AAF CLOUDY 73 68 84 S3 30.14R FORT STEWART PTCLDY 71 64 79 CALM 30.14R STATESBORO MOCLDY 74 68 80 S3 30.16R SYLVANIA MOCLDY 76 67 72 CALM 30.17R CLAXTON FAIR 73 66 77 CALM 30.15R ...CSRA...CENTRAL AND FAR SOUTHEAST GEORGIA... CITY SKY/WX TMP DP RH WIND PRES REMARKS THOMSON PTCLDY 69 64 82 CALM 30.20R AUGUSTA-BUSH CLEAR 65 62 90 CALM 30.13R AUGUSTA-DANIEL CLEAR 78 55 44 CALM 30.15R SWAINSBORO FAIR 70 59 68 CALM 30.16R VIDALIA PTCLDY 73 61 64 SW5 30.16R EASTMAN FAIR 66 60 79 CALM 30.18R HAZLEHURST FAIR 74 60 61 CALM 30.14R ALMA PTCLDY 74 60 61 SE5 30.15R WAYCROSS PTCLDY 75 60 58 SE6 30.15R JESUP FAIR 68 61 77 CALM 30.16R BAXLEY FAIR 77 61 57 SE3 30.15R BRUNSWICK CLOUDY 79 70 73 CALM 30.17R SAINT SIMONS CLOUDY 76 67 73 S8 30.16R $$ SCZ027-028-034-036>038-045-046-048>050-GAZ119-141-250300- ...LAKE AND SUPPLEMENTAL COASTAL OBSERVATIONS... STATION/POSITION TIME TEMP WIND PRES WAVE SWELL AIR SEA DIR/SP/G HT/PER HT/PER/DIR (UTC) (F) (DEG/KT/KT) (MB) (FT/S) (FT/S/D) WINYAH BAY NOT AVBL LAKE MURRAY 0100 75 CALM / 1 1019.6R ACE BASIN NERRS NOT AVBL FORT PULASKI 0100 76 1021.4R SAPELO ISLAND 0100 76 150/ 6 1021.0R $$ ANZ835-935-AMZ111-154-330-350-352-354-370-450-454-472-250300- ...C-MAN AND BUOY OBSERVATIONS... STATION/POSITION TIME TEMP WIND PRES WAVE SWELL AIR SEA DIR/SP/G HT/PER HT/PER/DIR (UTC) (F) (DEG/KT/KT) (MB) (FT/S) (FT/S/D) BUOY 41004 0150 76 76 180/ 10/ 12 1021.4R 2/ 8 2/ 8 BUOY 41008 0150 77 76 150/ 12/ 12 1021.1R 2/ 9 2/ 90/ 9 FOLLY BEACH CMAN 0100 74 170/ 10/ 12 1021.3R CAPERS NEARSHORE 0108 74 74 190/ 10/ 14 1020.8R FRIPP NEARSHORE 0108 75 75 180/ 10/ 12 1020.4R STATION/POSITION TIME TEMP WIND PRES WAVE SWELL AIR SEA DIR/SP/G HT/PER HT/PER/DIR (UTC) (F) (DEG/KT/KT) (MB) (FT/S) (FT/S/D) 5E ST. MARYS GA 0121 78 N/A 2/ 8 FRYING PAN BUOY 0100 75 77 200/ 8/ 10 1020.5R BUOY 41025 0150 73 80 240/ 19/ 21 1019.9R 4/ 9 2/100/ 9 CAPE LOOKOUT NC 0100 71 220/ 9/ 12 1019.9R BUOY 41002 0150 73 78 360/ 4/ 6 1021.7R 5/ 9 5/ 30/ 9 BUOY 41010 0120 77 78 70/ 10/ 12 1021.6R ST AUGUSTINE FL 0200 78 81 130/ 14/ 16 1022.3R $$

USA.gov is the U.S. government's official web portal to all federal, state and local government web resources and services.